period_start,C,m1,H,J0,J1,J2,J3,J4,J5,JA,JB,JC,JD,JJ,JK,JN,#
2015-08-22 00:03:34,0.00,0.76,0.00,25.87,29.22,32.05,14.38,50.47,1020.91,2030.00,3135.08,2986.00,3226.22,599.69,592.56,48.41,0000 0000 0000 0000 000000
2015-08-22 00:08:36,0.00,0.76,0.00,25.87,29.22,32.04,14.47,50.42,1020.96,2030.00,3135.02,2986.00,3226.07,599.83,592.67,48.46,0000 0000 0000 0000 000000
2015-08-22 00:13:37,0.00,0.76,0.00,25.87,29.23,32.04,14.41,50.62,1021.00,2030.00,3135.00,2986.00,3226.02,600.06,592.82,48.51,0000 0000 0000 0000 000000
2015-08-22 00:18:39,0.00,0.76,0.00,25.87,29.24,32.06,14.42,50.45,1021.00,2029.99,3135.00,2986.00,3226.01,600.25,593.10,48.56,0000 0000 0000 0000 000000
2015-08-22 00:23:40,0.00,0.76,0.00,25.88,29.25,32.08,14.43,50.40,1021.01,2029.99,3135.01,2986.00,3226.02,599.91,592.80,48.61,0000 0000 0000 0000 000000
2015-08-22 00:28:41,0.00,0.76,0.00,25.90,29.25,32.07,14.43,50.54,1021.01,2029.99,3135.00,2986.00,3226.01,599.98,592.79,48.66,0000 0000 0000 0000 000000
2015-08-22 00:33:43,0.00,0.76,0.00,25.90,29.25,32.05,14.37,50.36,1021.01,2029.99,3135.00,2986.00,3226.01,599.77,592.60,48.71,0000 0000 0000 0000 000000
2015-08-22 00:38:44,0.00,0.76,0.00,25.90,29.25,32.05,14.43,50.33,1021.01,2029.99,3135.00,2986.00,3226.00,599.68,592.53,48.76,0000 0000 0000 0000 000000
2015-08-22 00:43:45,0.00,0.76,0.00,25.92,29.26,32.05,14.36,50.44,1021.01,2029.99,3135.00,2986.00,3225.99,599.79,592.60,48.81,0000 0000 0000 0000 000000
2015-08-22 00:48:47,0.00,0.76,0.00,25.92,29.27,32.04,14.43,50.48,1021.01,2029.98,3134.98,2985.98,3225.98,600.28,593.04,48.86,0000 0000 0000 0000 000000
2015-08-22 00:53:48,-0.00,0.76,0.00,25.92,29.27,32.07,14.49,50.77,1021.01,2029.98,3134.92,2985.97,3225.93,600.31,593.21,48.91,0000 0000 0000 0000 000000
2015-08-22 00:58:50,0.00,0.76,0.00,25.93,29.27,32.08,14.42,50.42,1021.01,2029.98,3134.85,2985.97,3225.88,600.27,592.98,48.96,0000 0000 0000 0000 000000
2015-08-22 01:03:51,0.01,0.76,0.00,25.95,29.27,32.07,14.45,50.55,1021.01,2029.98,3134.60,2985.92,3225.64,600.00,592.67,49.01,0000 0000 0000 0000 000000
2015-08-22 01:08:52,-0.00,0.76,0.00,25.96,29.28,32.05,14.43,50.57,1021.01,2029.97,3134.45,2985.96,3225.54,600.34,592.86,49.06,0000 0000 0000 0000 000000
2015-08-22 01:13:54,0.01,0.76,0.00,25.97,29.29,32.04,14.34,50.39,1021.01,2029.97,3134.14,2985.88,3225.24,599.86,592.69,49.12,0000 0000 0000 0000 000000
2015-08-22 01:18:55,0.00,0.76,0.00,25.97,29.30,32.08,14.40,50.53,1021.01,2029.97,3134.14,2985.91,3225.24,599.85,592.53,49.17,0000 0000 0000 0000 000000
2015-08-22 01:23:56,-0.00,0.76,0.00,25.97,29.30,32.07,14.49,50.49,1021.01,2029.97,3134.07,2985.89,3225.19,599.91,592.52,49.22,0000 0000 0000 0000 000000
2015-08-22 01:28:58,0.01,0.76,0.00,25.97,29.30,32.08,14.38,50.41,1021.01,2029.97,3134.02,2985.70,3225.04,600.05,592.71,49.27,0000 0000 0000 0000 000000
2015-08-22 01:33:59,0.00,0.77,0.00,25.97,29.30,32.08,14.50,50.63,1021.01,2029.97,3134.00,2985.60,3225.01,600.16,592.70,49.32,0000 0000 0000 0000 000000
2015-08-22 01:39:00,0.00,0.76,0.00,25.97,29.31,32.09,14.50,50.46,1021.02,2029.96,3134.00,2985.66,3225.01,600.49,593.04,49.37,0000 0000 0000 0000 000000
2015-08-22 01:44:01,0.00,0.76,0.00,25.99,29.32,32.09,14.48,50.64,1021.03,2029.97,3134.00,2985.71,3225.01,599.89,592.42,49.42,0000 0000 0000 0000 000000
2015-08-22 01:49:03,0.01,0.76,0.00,26.00,29.32,32.10,14.36,50.46,1021.04,2029.97,3134.00,2985.45,3225.01,599.96,592.54,49.47,0000 0000 0000 0000 000000
2015-08-22 01:54:03,-0.00,0.77,0.00,26.00,29.32,32.13,14.38,50.63,1021.03,2029.94,3134.00,2985.30,3225.00,600.13,592.68,49.52,0000 0000 0000 0000 000000
2015-08-22 01:59:05,0.00,0.77,0.00,26.00,29.32,32.12,14.38,50.63,1021.06,2029.93,3133.98,2985.12,3224.99,599.67,592.36,49.57,0000 0000 0000 0000 000000
2015-08-22 02:04:06,-0.01,0.77,0.00,26.00,29.32,32.11,14.48,50.61,1021.16,2029.84,3133.97,2985.07,3224.98,600.09,592.78,49.62,0000 0000 0000 0000 000000
2015-08-22 02:09:08,-0.00,0.77,0.00,26.02,29.33,32.12,14.42,50.52,1021.21,2029.84,3133.85,2985.02,3224.98,599.74,592.40,49.67,0000 0000 0000 0000 000000
2015-08-22 02:14:09,0.01,0.77,0.00,26.02,29.33,32.11,14.42,50.54,1021.23,2029.85,3133.70,2985.02,3224.97,599.86,592.40,49.72,0000 0000 0000 0000 000000
2015-08-22 02:19:10,0.00,0.77,0.00,26.03,29.35,32.12,14.40,50.47,1021.24,2029.90,3133.66,2985.04,3224.97,599.99,592.78,49.77,0000 0000 0000 0000 000000
2015-08-22 02:24:12,0.01,0.77,0.00,26.03,29.35,32.13,14.40,50.58,1021.21,2029.92,3133.33,2985.02,3224.94,599.92,592.54,49.82,0000 0000 0000 0000 000000
2015-08-22 02:29:13,-0.00,0.77,0.00,26.03,29.35,32.12,14.43,50.61,1021.27,2029.82,3133.16,2985.01,3224.69,599.86,592.67,49.87,0000 0000 0000 0000 000000
2015-08-22 02:34:15,0.01,0.77,0.00,26.02,29.35,32.11,14.40,50.48,1021.23,2029.81,3133.00,2985.00,3224.38,599.80,592.65,49.92,0000 0000 0000 0000 000000
2015-08-22 02:39:16,-0.01,0.77,0.00,26.03,29.35,32.13,14.38,50.63,1021.28,2029.77,3133.00,2985.00,3224.11,600.20,592.73,49.97,0000 0000 0000 0000 000000
2015-08-22 02:44:17,0.00,0.77,0.00,26.05,29.35,32.12,14.42,50.37,1021.43,2029.61,3133.00,2985.00,3224.09,600.13,592.86,50.03,0000 0000 0000 0000 000000
2015-08-22 02:49:18,0.02,0.77,0.00,26.05,29.36,32.14,14.41,50.59,1021.46,2029.86,3133.00,2985.00,3224.12,600.27,593.01,50.08,0000 0000 0000 0000 000000
2015-08-22 02:54:20,-0.00,0.77,0.00,26.05,29.37,32.14,14.43,50.52,1021.43,2029.85,3133.00,2985.00,3224.08,599.79,592.56,50.13,0000 0000 0000 0000 000000
2015-08-22 02:59:21,-0.01,0.77,0.00,26.05,29.37,32.15,14.36,50.43,1021.40,2029.76,3133.00,2985.00,3224.04,599.53,592.32,50.18,0000 0000 0000 0000 000000
2015-08-22 03:04:23,0.01,0.77,0.00,26.05,29.37,32.17,14.41,50.55,1021.44,2029.87,3133.00,2985.00,3224.07,599.96,592.57,50.23,0000 0000 0000 0000 000000
2015-08-22 03:09:24,-0.01,0.77,0.00,26.05,29.37,32.13,14.45,50.42,1021.48,2029.74,3133.00,2985.00,3224.02,600.14,592.93,50.28,0000 0000 0000 0000 000000
2015-08-22 03:14:25,-0.02,0.77,0.00,26.07,29.37,32.14,14.46,50.50,1021.50,2029.48,3133.00,2985.00,3224.01,600.03,592.84,50.33,0000 0000 0000 0000 000000
2015-08-22 03:19:26,-0.02,0.76,0.00,26.07,29.39,32.17,14.40,50.54,1021.50,2029.30,3133.00,2985.00,3224.00,599.92,592.70,50.38,0000 0000 0000 0000 000000
2015-08-22 03:24:27,-0.00,0.76,0.00,26.07,29.40,32.17,14.45,50.48,1021.50,2029.18,3132.99,2984.99,3224.00,599.99,592.72,50.43,0000 0000 0000 0000 000000
2015-08-22 03:29:28,-0.00,0.76,0.00,26.07,29.40,32.18,14.39,50.47,1021.50,2029.13,3132.99,2984.99,3224.00,599.87,592.59,50.48,0000 0000 0000 0000 000000
2015-08-22 03:34:29,-0.00,0.76,0.00,26.07,29.40,32.17,14.51,50.52,1021.50,2029.08,3132.97,2984.97,3224.00,600.42,593.02,50.53,0000 0000 0000 0000 000000
2015-08-22 03:39:31,0.00,0.76,0.00,26.07,29.40,32.19,14.47,50.58,1021.48,2029.10,3132.93,2984.95,3224.00,600.08,592.78,50.58,0000 0000 0000 0000 000000
2015-08-22 03:44:32,-0.00,0.76,0.00,26.09,29.41,32.19,14.34,50.49,1021.48,2029.07,3132.81,2984.91,3223.99,599.72,592.46,50.63,0000 0000 0000 0000 000000
2015-08-22 03:49:34,0.00,0.76,0.00,26.10,29.42,32.20,14.36,50.48,1021.43,2029.09,3132.90,2984.93,3223.99,599.67,592.34,50.68,0000 0000 0000 0000 000000
2015-08-22 03:54:35,0.00,0.76,0.00,26.10,29.42,32.19,14.40,50.48,1021.41,2029.08,3132.89,2984.93,3223.98,599.87,592.45,50.73,0000 0000 0000 0000 000000
2015-08-22 03:59:36,0.01,0.76,0.00,26.11,29.42,32.20,14.44,50.57,1021.40,2029.05,3132.77,2984.84,3223.98,600.18,592.66,50.78,0000 0000 0000 0000 000000
2015-08-22 04:04:37,0.02,0.76,0.00,26.12,29.43,32.20,14.39,50.36,1021.45,2029.02,3132.29,2984.37,3223.94,600.28,592.93,50.83,0000 0000 0000 0000 000000
2015-08-22 04:09:39,-0.01,0.76,0.00,26.12,29.45,32.17,14.44,50.50,1021.45,2029.02,3132.43,2984.41,3223.95,599.95,592.61,50.88,0000 0000 0000 0000 000000
2015-08-22 04:14:40,0.02,0.76,0.00,26.13,29.45,32.20,14.36,50.42,1021.47,2029.01,3132.20,2984.21,3223.86,600.01,592.60,50.93,0000 0000 0000 0000 000000
2015-08-22 04:19:40,0.00,0.77,0.00,26.15,29.45,32.20,14.38,50.51,1021.48,2029.00,3132.12,2984.09,3223.61,599.70,592.59,50.99,0000 0000 0000 0000 000000
2015-08-22 04:24:42,0.01,0.77,0.00,26.15,29.45,32.20,14.48,50.56,1021.48,2029.00,3132.03,2984.03,3223.23,599.73,592.23,51.04,0000 0000 0000 0000 000000
2015-08-22 04:29:43,0.00,0.77,0.00,26.16,29.46,32.20,14.36,50.33,1021.50,2029.00,3132.01,2984.02,3223.11,599.71,592.46,51.09,0000 0000 0000 0000 000000
2015-08-22 04:34:45,0.00,0.77,0.00,26.17,29.47,32.20,14.43,50.51,1021.50,2029.00,3132.01,2984.01,3223.11,599.66,592.24,51.14,0000 0000 0000 0000 000000
2015-08-22 04:39:46,0.00,0.77,0.00,26.20,29.47,32.17,14.30,50.39,1021.48,2029.00,3132.01,2984.00,3223.04,599.77,592.27,51.19,0000 0000 0000 0000 000000
2015-08-22 04:44:47,0.00,0.77,0.00,26.20,29.47,32.21,14.37,50.45,1021.48,2029.00,3132.01,2984.01,3223.03,600.02,592.58,51.24,0000 0000 0000 0000 000000
2015-08-22 04:49:48,0.00,0.77,0.00,26.21,29.49,32.18,14.44,50.46,1021.48,2029.00,3132.00,2984.00,3223.00,599.93,592.33,51.29,0000 0000 0000 0000 000000
2015-08-22 04:54:50,0.00,0.77,0.00,26.23,29.50,32.18,14.39,50.53,1021.49,2028.99,3131.99,2984.00,3223.00,600.01,592.28,51.34,0000 0000 0000 0000 000000
2015-08-22 04:59:50,0.00,0.77,0.00,26.25,29.50,32.17,14.38,50.53,1021.50,2028.99,3131.98,2984.00,3222.99,599.92,592.36,51.39,0000 0000 0000 0000 000000
2015-08-22 05:04:51,0.00,0.77,0.00,26.26,29.51,32.18,14.39,50.55,1021.50,2028.99,3131.97,2983.99,3222.98,599.84,592.13,51.44,0000 0000 0000 0000 000000
2015-08-22 05:09:52,0.00,0.77,0.00,26.28,29.52,32.19,14.34,50.49,1021.50,2028.99,3131.98,2983.98,3222.99,600.17,592.55,51.49,0000 0000 0000 0000 000000
2015-08-22 05:14:53,-0.00,0.77,0.00,26.30,29.53,32.19,14.40,50.46,1021.50,2028.96,3131.97,2983.98,3222.97,599.78,592.09,51.54,0000 0000 0000 0000 000000
2015-08-22 05:19:54,0.00,0.77,0.00,26.30,29.55,32.22,14.38,50.38,1021.50,2028.96,3131.95,2983.97,3222.96,599.90,592.19,51.59,0000 0000 0000 0000 000000
2015-08-22 05:24:56,-0.00,0.77,0.00,26.32,29.55,32.21,14.32,50.35,1021.50,2028.95,3131.94,2983.96,3222.97,599.72,591.92,51.64,0000 0000 0000 0000 000000
2015-08-22 05:29:57,0.01,0.77,0.00,26.33,29.57,32.22,14.35,50.47,1021.50,2028.90,3131.65,2983.82,3222.79,599.89,592.16,51.69,0000 0000 0000 0000 000000
2015-08-22 05:34:59,0.01,0.77,0.00,26.35,29.58,32.24,14.41,50.54,1021.50,2028.68,3131.15,2983.30,3222.23,600.02,592.25,51.74,0000 0000 0000 0000 000000
2015-08-22 05:40:00,-0.02,0.77,0.00,26.35,29.60,32.24,14.43,50.58,1021.50,2028.44,3131.02,2983.10,3222.06,600.13,592.47,51.79,0000 0000 0000 0000 000000
2015-08-22 05:45:01,-0.02,0.77,0.00,26.37,29.60,32.26,14.36,50.49,1021.50,2028.26,3131.01,2983.03,3222.03,599.59,591.71,51.84,0000 0000 0000 0000 000000
2015-08-22 05:50:02,0.00,0.77,0.00,26.39,29.62,32.29,14.42,50.46,1021.50,2028.18,3131.00,2983.02,3222.01,600.02,591.93,51.89,0000 0000 0000 0000 000000
2015-08-22 05:55:04,-0.01,0.76,0.00,26.40,29.62,32.30,14.42,50.43,1021.50,2028.08,3131.00,2983.01,3222.00,600.11,592.26,51.95,0000 0000 0000 0000 000000
2015-08-22 06:00:05,-0.00,0.76,0.00,26.40,29.64,32.32,14.41,50.52,1021.50,2028.04,3130.99,2983.00,3222.00,600.07,592.06,52.00,0000 0000 0000 0000 000000
2015-08-22 06:05:06,-0.00,0.76,0.00,26.41,29.65,32.31,14.46,50.55,1021.51,2028.04,3130.99,2983.00,3221.99,599.90,591.99,52.05,0000 0000 0000 0000 000000
2015-08-22 06:10:07,0.00,0.76,0.00,26.42,29.66,32.34,14.38,50.38,1021.51,2028.01,3130.93,2982.99,3221.98,600.16,592.27,52.10,0000 0000 0000 0000 000000
2015-08-22 06:15:08,0.01,0.76,0.00,26.42,29.67,32.34,14.26,50.41,1021.50,2028.00,3130.54,2982.96,3221.72,599.80,591.85,52.15,0000 0000 0000 0000 000000
2015-08-22 06:20:10,0.02,0.77,0.00,26.44,29.67,32.35,14.36,50.48,1021.50,2028.00,3130.04,2982.71,3221.18,600.25,592.15,52.20,0000 0000 0000 0000 000000
2015-08-22 06:25:11,0.01,0.77,0.00,26.45,29.70,32.38,14.43,50.47,1021.50,2028.00,3130.00,2982.36,3221.05,600.18,592.28,52.25,0000 0000 0000 0000 000000
2015-08-22 06:30:12,0.01,0.77,0.00,26.46,29.70,32.38,14.36,50.54,1021.50,2028.00,3130.00,2982.14,3221.02,600.01,591.90,52.30,0000 0000 0000 0000 000000
2015-08-22 06:35:13,0.00,0.77,0.00,26.47,29.70,32.40,14.39,50.48,1021.50,2028.00,3130.00,2982.03,3221.00,600.30,592.25,52.35,0000 0000 0000 0000 000000
2015-08-22 06:40:15,0.00,0.77,0.00,26.47,29.72,32.42,14.42,50.69,1021.50,2028.00,3129.98,2982.03,3221.00,600.28,592.23,52.40,0000 0000 0000 0000 000000
2015-08-22 06:45:16,0.00,0.77,0.00,26.47,29.72,32.42,14.37,50.52,1021.50,2028.00,3129.99,2982.02,3221.00,600.37,592.22,52.45,0000 0000 0000 0000 000000
2015-08-22 06:50:17,0.00,0.77,0.00,26.48,29.73,32.41,14.45,50.56,1021.51,2027.99,3129.98,2982.01,3221.00,599.86,591.90,52.50,0000 0000 0000 0000 000000
2015-08-22 06:55:18,0.00,0.77,0.00,26.49,29.75,32.43,14.34,50.47,1021.52,2027.99,3129.96,2982.00,3221.00,599.64,591.57,52.55,0000 0000 0000 0000 000000
2015-08-22 07:00:20,0.00,0.77,0.00,26.50,29.75,32.44,14.46,50.48,1021.53,2027.99,3129.94,2982.00,3220.99,600.09,591.78,52.60,0000 0000 0000 0000 000000
2015-08-22 07:05:21,0.01,0.77,0.00,26.50,29.75,32.45,14.44,50.56,1021.55,2027.98,3129.60,2982.00,3220.96,599.87,591.76,52.65,0000 0000 0000 0000 000000
2015-08-22 07:10:22,-0.00,0.77,0.00,26.50,29.77,32.47,14.36,50.41,1021.55,2027.95,3129.31,2981.99,3220.75,600.27,592.17,52.70,0000 0000 0000 0000 000000
2015-08-22 07:15:24,0.00,0.77,0.00,26.51,29.77,32.48,14.32,50.44,1021.52,2027.89,3129.07,2981.98,3220.46,599.86,591.71,52.75,0000 0000 0000 0000 000000
2015-08-22 07:20:25,-0.00,0.77,0.00,26.52,29.77,32.48,14.33,50.77,1021.70,2027.77,3129.02,2981.98,3220.17,599.81,591.79,52.80,0000 0000 0000 0000 000000
2015-08-22 07:25:26,-0.02,0.77,0.00,26.52,29.77,32.48,14.42,50.65,1021.89,2027.55,3129.00,2981.90,3220.05,600.04,591.91,52.86,0000 0000 0000 0000 000000
2015-08-22 07:30:28,0.00,0.77,0.00,26.52,29.78,32.52,14.40,50.65,1021.95,2027.52,3129.00,2981.83,3220.02,600.19,592.32,52.91,0000 0000 0000 0000 000000
2015-08-22 07:35:29,0.01,0.77,0.00,26.53,29.80,32.54,14.45,50.63,1021.95,2027.73,3129.00,2981.90,3220.06,599.95,592.01,52.96,0000 0000 0000 0000 000000
2015-08-22 07:40:31,-0.02,0.77,0.00,26.54,29.80,32.53,14.41,50.43,1021.99,2027.56,3129.00,2981.89,3220.03,600.09,592.15,53.01,0000 0000 0000 0000 000000
2015-08-22 07:45:32,-0.02,0.77,0.00,26.55,29.80,32.57,14.51,50.62,1021.95,2027.27,3129.00,2981.62,3220.01,599.99,592.17,53.06,0000 0000 0000 0000 000000
2015-08-22 07:50:34,0.01,0.77,0.00,26.55,29.80,32.55,14.39,50.50,1021.98,2027.22,3129.00,2981.41,3220.00,599.92,592.02,53.11,0000 0000 0000 0000 000000
2015-08-22 07:55:35,-0.01,0.77,0.00,26.55,29.82,32.58,14.41,50.61,1021.97,2027.20,3128.98,2981.43,3220.00,600.15,592.23,53.16,0000 0000 0000 0000 000000
2015-08-22 08:00:36,0.00,0.77,0.00,26.55,29.82,32.58,14.33,50.49,1021.98,2027.07,3128.97,2981.10,3220.00,599.94,591.99,53.21,0000 0000 0000 0000 000000
2015-08-22 08:05:37,0.00,0.77,0.00,26.55,29.82,32.60,14.25,50.43,1021.99,2027.07,3128.96,2981.08,3220.00,599.86,592.01,53.26,0000 0000 0000 0000 000000
2015-08-22 08:10:39,-0.00,0.77,0.00,26.55,29.82,32.60,14.42,50.35,1021.98,2027.02,3128.92,2981.02,3219.99,600.15,592.28,53.31,0000 0000 0000 0000 000000
2015-08-22 08:15:40,0.00,0.77,0.00,26.55,29.83,32.61,14.40,50.39,1021.99,2027.02,3128.62,2981.02,3219.97,599.97,592.06,53.36,0000 0000 0000 0000 000000
2015-08-22 08:20:41,0.00,0.77,0.00,26.55,29.85,32.62,14.38,50.44,1021.98,2027.02,3128.71,2981.01,3219.98,599.84,591.96,53.41,0000 0000 0000 0000 000000
2015-08-22 08:25:42,0.00,0.77,0.00,26.55,29.85,32.62,14.44,50.53,1021.80,2027.01,3128.55,2981.00,3219.94,599.99,592.11,53.46,0000 0000 0000 0000 000000
2015-08-22 08:30:44,0.00,0.77,0.00,26.55,29.85,32.63,14.41,50.60,1021.78,2027.01,3128.38,2981.00,3219.94,599.94,591.91,53.51,0000 0000 0000 0000 000000
2015-08-22 08:35:45,-0.00,0.77,0.00,26.55,29.85,32.63,14.36,50.35,1021.76,2027.00,3128.51,2981.00,3219.90,599.87,591.77,53.56,0000 0000 0000 0000 000000
2015-08-22 08:40:46,-0.00,0.77,0.00,26.55,29.85,32.65,14.43,50.48,1021.89,2027.00,3128.69,2981.01,3219.92,600.05,592.07,53.61,0000 0000 0000 0000 000000
2015-08-22 08:45:47,0.00,0.77,0.00,26.55,29.85,32.65,14.37,50.44,1021.96,2027.00,3128.57,2981.00,3219.95,599.75,591.79,53.66,0000 0000 0000 0000 000000
2015-08-22 08:50:48,0.01,0.77,0.00,26.55,29.85,32.66,14.29,50.40,1021.97,2027.00,3128.07,2981.00,3219.66,599.74,591.87,53.72,0000 0000 0000 0000 000000
2015-08-22 08:55:49,0.00,0.77,0.00,26.54,29.86,32.69,14.36,50.58,1021.88,2027.00,3128.05,2981.00,3219.62,599.91,592.10,53.77,0000 0000 0000 0000 000000
2015-08-22 09:00:51,0.00,0.77,0.00,26.55,29.87,32.66,14.39,50.56,1021.94,2027.00,3128.02,2981.00,3219.37,600.33,592.37,53.82,0000 0000 0000 0000 000000
2015-08-22 09:05:52,0.00,0.77,0.00,26.55,29.87,32.69,14.49,50.59,1021.97,2027.00,3128.04,2981.00,3219.34,600.02,592.12,53.87,0000 0000 0000 0000 000000
2015-08-22 09:10:53,0.00,0.77,0.00,26.52,29.87,32.70,14.43,50.54,1021.98,2027.00,3128.02,2981.00,3219.25,600.05,592.15,53.92,0000 0000 0000 0000 000000
2015-08-22 09:15:54,0.00,0.77,0.00,26.52,29.87,32.68,14.53,50.73,1021.97,2027.00,3128.02,2981.00,3219.26,600.15,592.31,53.97,0000 0000 0000 0000 000000
2015-08-22 09:20:56,0.00,0.77,0.00,26.52,29.87,32.71,14.34,50.48,1021.92,2027.00,3128.03,2981.00,3219.24,599.67,591.87,54.02,0000 0000 0000 0000 000000
2015-08-22 09:25:57,0.00,0.77,0.00,26.52,29.87,32.69,14.38,50.59,1021.92,2027.00,3128.01,2981.00,3219.18,599.99,592.27,54.07,0000 0000 0000 0000 000000
2015-08-22 09:30:58,0.00,0.77,0.00,26.52,29.87,32.72,14.36,50.41,1021.95,2027.00,3128.00,2981.00,3219.13,599.94,591.97,54.12,0000 0000 0000 0000 000000
2015-08-22 09:36:00,0.00,0.77,0.00,26.52,29.87,32.71,14.48,50.52,1021.97,2027.00,3128.01,2981.00,3219.13,600.32,592.46,54.17,0000 0000 0000 0000 000000
2015-08-22 09:41:01,0.00,0.77,0.00,26.52,29.87,32.70,14.26,50.34,1021.94,2027.00,3128.00,2981.00,3219.13,600.00,592.10,54.22,0000 0000 0000 0000 000000
2015-08-22 09:46:02,0.00,0.77,0.00,26.52,29.87,32.71,14.45,50.52,1021.95,2027.00,3128.00,2981.00,3219.12,600.24,592.29,54.27,0000 0000 0000 0000 000000
2015-08-22 09:51:03,-0.00,0.77,0.00,26.50,29.87,32.69,14.34,50.42,1021.96,2027.00,3128.00,2981.00,3219.12,599.60,591.77,54.32,0000 0000 0000 0000 000000
2015-08-22 09:56:05,-0.00,0.77,0.00,26.50,29.87,32.69,14.43,50.23,1021.97,2027.00,3128.01,2981.00,3219.34,599.80,591.94,54.37,0000 0000 0000 0000 000000
2015-08-22 10:01:06,0.00,0.77,0.00,26.50,29.87,32.71,14.43,50.34,1021.94,2027.00,3128.01,2981.00,3219.40,599.83,591.98,54.42,0000 0000 0000 0000 000000
2015-08-22 10:06:07,-0.00,0.77,0.00,26.50,29.86,32.74,14.40,50.46,1021.86,2027.00,3128.01,2981.00,3219.42,600.05,592.23,54.47,0000 0000 0000 0000 000000
2015-08-22 10:11:09,0.00,0.77,0.00,26.49,29.86,32.70,14.46,50.63,1021.79,2027.00,3128.00,2981.00,3219.35,600.12,592.25,54.52,0000 0000 0000 0000 000000
2015-08-22 10:16:10,-0.01,0.77,0.00,26.49,29.85,32.70,14.50,50.65,1021.71,2027.00,3128.00,2981.01,3219.60,600.37,592.23,54.57,0000 0000 0000 0000 000000
2015-08-22 10:21:11,0.00,0.77,0.00,26.47,29.85,32.72,14.49,50.58,1021.66,2027.01,3128.00,2981.02,3219.59,600.37,592.20,54.62,0000 0000 0000 0000 000000
2015-08-22 10:26:12,0.00,0.77,0.00,26.47,29.85,32.72,14.35,50.44,1021.81,2027.00,3128.00,2981.00,3219.41,599.67,591.78,54.68,0000 0000 0000 0000 000000
2015-08-22 10:31:14,0.00,0.77,0.00,26.47,29.85,32.70,14.33,50.46,1021.75,2027.01,3128.00,2981.00,3219.31,599.90,592.00,54.73,0000 0000 0000 0000 000000
2015-08-22 10:36:15,0.00,0.77,0.00,26.45,29.85,32.70,14.43,50.56,1021.59,2027.02,3127.99,2981.00,3219.16,600.13,592.11,54.78,0000 0000 0000 0000 000000
2015-08-22 10:41:16,-0.00,0.77,0.00,26.45,29.85,32.73,14.41,50.55,1021.54,2027.02,3127.99,2981.00,3219.20,600.15,592.16,54.83,0000 0000 0000 0000 000000
2015-08-22 10:46:18,-0.00,0.77,0.00,26.45,29.85,32.71,14.35,50.52,1021.66,2027.02,3127.94,2981.00,3219.11,599.81,591.78,54.88,0000 0000 0000 0000 000000
2015-08-22 10:51:19,0.00,0.77,0.00,26.46,29.85,32.69,14.39,50.48,1021.67,2027.01,3127.66,2981.00,3219.00,599.79,591.81,54.93,0000 0000 0000 0000 000000
2015-08-22 10:56:21,0.00,0.77,0.00,26.45,29.85,32.70,14.49,50.47,1021.78,2027.03,3127.60,2981.00,3219.01,600.18,592.42,54.98,0000 0000 0000 0000 000000
2015-08-22 11:01:22,0.00,0.77,0.00,26.45,29.85,32.71,14.46,50.42,1021.94,2027.03,3127.35,2981.00,3219.00,600.18,592.60,55.03,0000 0000 0000 0000 000000
2015-08-22 11:06:23,0.00,0.77,0.00,26.42,29.85,32.70,14.43,50.55,1021.96,2027.03,3127.08,2980.98,3219.00,599.94,592.20,55.08,0000 0000 0000 0000 000000
2015-08-22 11:11:24,0.00,0.77,0.00,26.42,29.84,32.70,14.44,50.48,1021.98,2027.02,3127.01,2980.98,3219.00,600.18,592.52,55.13,0000 0000 0000 0000 000000
2015-08-22 11:16:25,0.00,0.77,0.00,26.42,29.84,32.69,14.41,50.47,1021.92,2027.04,3127.02,2980.98,3219.00,599.86,592.12,55.18,0000 0000 0000 0000 000000
2015-08-22 11:21:27,0.00,0.77,0.00,26.41,29.83,32.68,14.51,50.62,1021.91,2027.08,3127.03,2980.99,3219.00,600.16,592.46,55.23,0000 0000 0000 0000 000000
2015-08-22 11:26:28,-0.00,0.77,0.00,26.41,29.83,32.69,14.40,50.44,1021.83,2027.11,3127.02,2980.99,3219.00,599.80,592.14,55.28,0000 0000 0000 0000 000000
2015-08-22 11:31:29,-0.00,0.77,0.00,26.40,29.82,32.67,14.37,50.63,1021.78,2027.10,3127.00,2980.98,3219.00,599.64,592.09,55.33,0000 0000 0000 0000 000000
2015-08-22 11:36:31,0.00,0.77,0.00,26.40,29.82,32.65,14.38,50.45,1021.79,2027.15,3127.00,2980.98,3219.00,599.79,592.02,55.38,0000 0000 0000 0000 000000
2015-08-22 11:41:32,-0.00,0.77,0.00,26.39,29.82,32.67,14.41,50.53,1021.80,2027.08,3127.00,2980.98,3218.98,599.95,592.31,55.43,0000 0000 0000 0000 000000
2015-08-22 11:46:33,0.00,0.77,0.00,26.40,29.82,32.66,14.49,50.46,1021.84,2027.13,3126.99,2980.98,3218.97,600.23,592.43,55.48,0000 0000 0000 0000 000000
2015-08-22 11:51:35,-0.00,0.77,0.00,26.37,29.82,32.67,14.42,50.40,1021.81,2027.09,3126.96,2980.98,3218.95,599.83,592.12,55.53,0000 0000 0000 0000 000000
2015-08-22 11:56:36,0.01,0.77,0.00,26.37,29.82,32.65,14.41,50.38,1021.60,2027.17,3126.96,2980.98,3218.96,600.04,592.20,55.59,0000 0000 0000 0000 000000
2015-08-22 12:01:37,0.02,0.77,0.00,26.38,29.80,32.64,14.40,50.46,1021.57,2027.28,3126.94,2980.98,3218.97,599.73,591.97,55.64,0000 0000 0000 0000 000000
2015-08-22 12:06:39,0.01,0.77,0.00,26.36,29.80,32.66,14.44,50.50,1021.55,2027.44,3126.93,2980.99,3218.98,599.97,592.23,55.69,0000 0000 0000 0000 000000
2015-08-22 12:11:40,0.01,0.77,0.00,26.35,29.80,32.64,14.49,50.54,1021.52,2027.56,3126.85,2980.99,3218.96,600.17,592.23,55.74,0000 0000 0000 0000 000000
2015-08-22 12:16:41,0.01,0.77,0.00,26.36,29.80,32.65,14.40,50.50,1021.51,2027.70,3126.57,2980.99,3218.96,599.91,592.20,55.79,0000 0000 0000 0000 000000
2015-08-22 12:21:42,0.00,0.77,0.00,26.35,29.80,32.63,14.46,50.60,1021.52,2027.78,3126.19,2980.99,3218.94,600.09,592.32,55.84,0000 0000 0000 0000 000000
2015-08-22 12:26:44,0.01,0.77,0.00,26.35,29.78,32.64,14.38,50.42,1021.51,2027.68,3126.04,2980.99,3218.70,599.89,591.97,55.89,0000 0000 0000 0000 000000
2015-08-22 12:31:45,0.01,0.77,0.00,26.35,29.77,32.62,14.45,50.60,1021.51,2027.81,3126.02,2980.99,3218.76,599.93,592.17,55.94,0000 0000 0000 0000 000000
2015-08-22 12:36:46,0.01,0.77,0.00,26.35,29.77,32.62,14.40,50.54,1021.50,2027.92,3126.01,2980.99,3218.55,599.95,592.19,55.99,0000 0000 0000 0000 000000
2015-08-22 12:41:47,0.01,0.77,0.00,26.34,29.77,32.63,14.40,50.58,1021.48,2027.93,3126.00,2980.99,3218.40,599.77,591.98,56.04,0000 0000 0000 0000 000000
2015-08-22 12:46:49,0.00,0.77,0.00,26.32,29.77,32.61,14.44,50.46,1021.36,2027.94,3125.99,2980.98,3218.08,599.95,592.19,56.09,0000 0000 0000 0000 000000
2015-08-22 12:51:50,0.00,0.77,0.00,26.32,29.77,32.62,14.40,50.55,1021.19,2027.97,3125.99,2980.99,3218.05,600.10,592.21,56.14,0000 0000 0000 0000 000000
2015-08-22 12:56:51,0.00,0.77,0.00,26.32,29.77,32.61,14.43,50.58,1021.17,2027.97,3125.96,2980.97,3218.01,600.16,592.35,56.19,0000 0000 0000 0000 000000